| time (UTC) | temp F | wind direction | speed knots | gust knots | rain 1hr in | rain 24hr in | rain mn in | humidity % | barometer mb |
| 20260508044017 | 63 | 298 | 6.1 | 12.2 | 0.00 | 0.00 | 0.00 | 41 | 1021.1 |
| 20260508043046 | 61 | 325 | 2.6 | 5.2 | 0.00 | 0.00 | 0.00 | 41 | 1020.8 |
| 20260508042015 | 59 | 111 | 0.9 | 7.0 | 0.00 | 0.00 | 0.00 | 49 | 1020.6 |
| 20260508041022 | 59 | 17 | 2.6 | 5.2 | 0.00 | 0.00 | 0.00 | 48 | 1020.0 |
| 20260508040031 | 60 | 109 | 1.7 | 4.3 | 0.00 | 0.00 | 0.00 | 43 | 1019.8 |
| 20260508035030 | 60 | 325 | 5.2 | 11.3 | 0.00 | 0.00 | 0.00 | 39 | 1019.6 |
| 20260508034015 | 59 | 300 | 5.2 | 10.4 | 0.00 | 0.00 | 0.00 | 48 | 1019.6 |
| 20260508033018 | 60 | 129 | 3.5 | 9.6 | 0.00 | 0.00 | 0.00 | 34 | 1018.9 |
| 20260508032027 | 58 | 142 | 3.5 | 6.1 | 0.00 | 0.00 | 0.00 | 41 | 1018.4 |
| 20260508030031 | 59 | 53 | 1.7 | 3.5 | 0.00 | 0.00 | 0.00 | 42 | 1018.2 |
| 20260508025015 | 58 | 142 | 3.5 | 6.1 | 0.00 | 0.00 | 0.00 | 42 | 1018.3 |
| 20260508024017 | 57 | 139 | 3.5 | 7.8 | 0.00 | 0.00 | 0.00 | 45 | 1018.3 |
| 20260508023048 | 57 | 153 | 1.7 | 4.3 | 0.00 | 0.00 | 0.00 | 47 | 1018.7 |
| 20260508022015 | 56 | 114 | 0.9 | 3.5 | 0.00 | 0.00 | 0.00 | 49 | 1018.7 |
| 20260508021023 | 57 | 109 | 2.6 | 7.8 | 0.00 | 0.00 | 0.00 | 47 | 1018.6 |
| 20260508020031 | 57 | 142 | 1.7 | 5.2 | 0.00 | 0.00 | 0.00 | 48 | 1018.5 |
| 20260508015011 | 56 | 119 | 1.7 | 4.3 | 0.00 | 0.00 | 0.00 | 52 | 1018.7 |
| 20260508014019 | 55 | 143 | 0.9 | 3.5 | 0.00 | 0.00 | 0.00 | 54 | 1018.9 |
| 20260508013027 | 56 | 165 | 1.7 | 6.1 | 0.00 | 0.00 | 0.00 | 54 | 1019.0 |
| 20260508012020 | 56 | 173 | 0.9 | 7.0 | 0.00 | 0.00 | 0.00 | 52 | 1019.1 |
| 20260508011046 | 56 | 119 | 2.6 | 7.0 | 0.00 | 0.00 | 0.00 | 59 | 1019.3 |
| 20260508010054 | 56 | 133 | 3.5 | 6.1 | 0.00 | 0.00 | 0.00 | 58 | 1019.5 |
| 20260508005013 | 53 | 110 | 2.6 | 5.2 | 0.00 | 0.00 | 0.00 | 66 | 1019.5 |
| 20260508004018 | 52 | 59 | 1.7 | 2.6 | 0.00 | 0.00 | 0.00 | 69 | 1019.9 |
| 20260508003027 | 53 | 105 | 1.7 | 5.2 | 0.00 | 0.00 | 0.00 | 67 | 1019.8 |
| 20260508002036 | 54 | 163 | 1.7 | 6.1 | 0.00 | 0.00 | 0.00 | 68 | 1019.7 |
| 20260508001024 | 55 | 118 | 2.6 | 7.0 | 0.00 | 0.00 | 0.00 | 65 | 1019.7 |
| 20260508000032 | 55 | 118 | 1.7 | 7.0 | 0.00 | 0.00 | 0.00 | 67 | 1019.7 |
| 20260507235027 | 54 | 136 | 1.7 | 3.5 | 0.00 | 0.00 | 0.00 | 70 | 1020.1 |
| 20260507234015 | 54 | 119 | 2.6 | 6.1 | 0.00 | 0.00 | 0.00 | 70 | 1020.4 |
| 20260507233024 | 54 | 130 | 3.5 | 4.3 | 0.00 | 0.00 | 0.00 | 70 | 1020.5 |
| 20260507232013 | 55 | 106 | 1.7 | 6.1 | 0.00 | 0.00 | 0.00 | 70 | 1020.6 |
| 20260507231043 | 53 | 119 | 3.5 | 6.1 | 0.00 | 0.00 | 0.00 | 75 | 1020.7 |
| 20260507230031 | 53 | 36 | 0.9 | 2.6 | 0.00 | 0.00 | 0.00 | 76 | 1020.7 |
| 20260507225028 | 53 | 30 | 0.0 | 2.6 | 0.00 | 0.00 | 0.00 | 75 | 1020.9 |
| 20260507224015 | 53 | 159 | 0.9 | 4.3 | 0.00 | 0.00 | 0.00 | 76 | 1021.2 |
| 20260507223025 | 53 | 74 | 0.0 | 1.7 | 0.00 | 0.00 | 0.00 | 76 | 1021.3 |
| 20260507222014 | 53 | 73 | 0.9 | 3.5 | 0.00 | 0.00 | 0.00 | 76 | 1021.5 |
| 20260507221022 | 54 | 112 | 1.7 | 3.5 | 0.00 | 0.00 | 0.00 | 76 | 1021.3 |
| 20260507220031 | 53 | 113 | 0.0 | 1.7 | 0.00 | 0.00 | 0.00 | 77 | 1021.3 |
| 20260507215024 | 56 | 98 | 0.0 | 2.6 | 0.00 | 0.00 | 0.00 | 71 | 1021.3 |
| 20260507214017 | 55 | 117 | 0.9 | 4.3 | 0.00 | 0.00 | 0.00 | 75 | 1021.3 |
| 20260507213040 | 54 | 128 | 1.7 | 3.5 | 0.00 | 0.00 | 0.00 | 78 | 1021.5 |
| 20260507212038 | 53 | 106 | 1.7 | 3.5 | 0.00 | 0.00 | 0.00 | 78 | 1021.8 |
| 20260507211026 | 53 | 136 | 0.0 | 2.6 | 0.00 | 0.00 | 0.00 | 78 | 1021.6 |
| 20260507210032 | 53 | 117 | 0.9 | 1.7 | 0.00 | 0.00 | 0.00 | 77 | 1021.8 |
| 20260507205022 | 53 | 137 | 2.6 | 3.5 | 0.00 | 0.00 | 0.00 | 77 | 1021.9 |
| 20260507204018 | 54 | 120 | 0.0 | 0.0 | 0.00 | 0.00 | 0.00 | 74 | 1022.1 |
| 20260507203026 | 54 | 120 | 0.0 | 0.0 | 0.00 | 0.00 | 0.00 | 75 | 1022.2 |
| 20260507202034 | 55 | 120 | 0.0 | 0.0 | 0.00 | 0.00 | 0.00 | 75 | 1022.4 |
| 20260507201022 | 55 | 120 | 0.0 | 0.0 | 0.00 | 0.00 | 0.00 | 76 | 1022.2 |
| 20260507200031 | 54 | 120 | 0.0 | 0.0 | 0.00 | 0.00 | 0.00 | 76 | 1022.1 |
| 20260507195028 | 54 | 120 | 0.0 | 0.0 | 0.00 | 0.00 | 0.00 | 77 | 1022.0 |
| 20260507193026 | 54 | 119 | 0.9 | 1.7 | 0.00 | 0.00 | 0.00 | 76 | 1022.0 |
| 20260507192014 | 54 | 119 | 0.0 | 0.0 | 0.00 | 0.00 | 0.00 | 76 | 1022.2 |
| 20260507191043 | 54 | 119 | 0.0 | 2.6 | 0.00 | 0.00 | 0.00 | 74 | 1021.8 |
| 20260507190031 | 54 | 119 | 0.0 | 0.9 | 0.00 | 0.00 | 0.00 | 76 | 1021.7 |
| 20260507185018 | 55 | 119 | 0.0 | 1.7 | 0.00 | 0.00 | 0.00 | 74 | 1021.3 |
| 20260507184020 | 55 | 119 | 0.0 | 2.6 | 0.00 | 0.00 | 0.00 | 75 | 1021.0 |
| 20260507183027 | 55 | 119 | 0.0 | 0.9 | 0.00 | 0.00 | 0.00 | 75 | 1021.0 |
| 20260507182015 | 55 | 119 | 0.0 | 0.0 | 0.00 | 0.00 | 0.00 | 73 | 1020.8 |
| 20260507181042 | 56 | 119 | 0.0 | 1.7 | 0.00 | 0.00 | 0.00 | 73 | 1020.7 |
| 20260507180032 | 55 | 63 | 0.9 | 2.6 | 0.00 | 0.00 | 0.00 | 74 | 1020.6 |
| 20260507175017 | 56 | 326 | 0.0 | 0.0 | 0.00 | 0.00 | 0.00 | 72 | 1020.4 |
| 20260507174021 | 57 | 326 | 0.0 | 0.0 | 0.00 | 0.00 | 0.00 | 71 | 1020.8 |
| 20260507173049 | 59 | 326 | 0.0 | 0.0 | 0.00 | 0.00 | 0.00 | 68 | 1020.7 |
| 20260507172016 | 58 | 326 | 0.0 | 0.0 | 0.00 | 0.00 | 0.00 | 68 | 1020.6 |
| 20260507171023 | 60 | 326 | 0.0 | 0.9 | 0.00 | 0.00 | 0.00 | 67 | 1020.6 |
| 20260507170032 | 60 | 326 | 0.0 | 1.7 | 0.00 | 0.00 | 0.00 | 66 | 1020.7 |
| 20260507165028 | 61 | 326 | 0.0 | 0.9 | 0.00 | 0.00 | 0.00 | 67 | 1020.8 |
| 20260507164013 | 62 | 326 | 0.0 | 0.9 | 0.00 | 0.00 | 0.00 | 66 | 1020.7 |
| 20260507163019 | 62 | 326 | 0.0 | 1.7 | 0.00 | 0.00 | 0.00 | 64 | 1020.7 |
| 20260507162026 | 63 | 326 | 0.9 | 1.7 | 0.00 | 0.00 | 0.00 | 57 | 1020.7 |
| 20260507161026 | 63 | 326 | 0.0 | 1.7 | 0.00 | 0.00 | 0.00 | 56 | 1020.5 |
| 20260507160035 | 64 | 326 | 0.9 | 1.7 | 0.00 | 0.00 | 0.00 | 55 | 1020.5 |
| 20260507155044 | 63 | 326 | 0.9 | 1.7 | 0.00 | 0.00 | 0.00 | 57 | 1020.7 |
| 20260507154029 | 63 | 325 | 0.9 | 4.3 | 0.00 | 0.00 | 0.00 | 56 | 1020.8 |
| 20260507153016 | 64 | 332 | 2.6 | 5.2 | 0.00 | 0.00 | 0.00 | 56 | 1021.1 |
| 20260507152023 | 64 | 325 | 0.9 | 4.3 | 0.00 | 0.00 | 0.00 | 57 | 1020.8 |
| 20260507151028 | 63 | 327 | 1.7 | 4.3 | 0.00 | 0.00 | 0.00 | 56 | 1021.0 |
| 20260507150032 | 63 | 331 | 3.5 | 7.8 | 0.00 | 0.00 | 0.00 | 56 | 1021.0 |
| 20260507145025 | 64 | 323 | 4.3 | 9.6 | 0.00 | 0.00 | 0.00 | 55 | 1021.1 |
| 20260507144052 | 64 | 341 | 6.1 | 12.2 | 0.00 | 0.00 | 0.00 | 55 | 1021.2 |
| 20260507143015 | 64 | 329 | 6.1 | 10.4 | 0.00 | 0.00 | 0.00 | 54 | 1021.0 |
| 20260507142015 | 65 | 319 | 4.3 | 8.7 | 0.00 | 0.00 | 0.00 | 53 | 1020.9 |
| 20260507141045 | 65 | 334 | 4.3 | 7.0 | 0.00 | 0.00 | 0.00 | 52 | 1020.8 |
| 20260507140031 | 65 | 336 | 5.2 | 7.8 | 0.00 | 0.00 | 0.00 | 51 | 1020.8 |
| 20260507135019 | 65 | 317 | 3.5 | 8.7 | 0.00 | 0.00 | 0.00 | 52 | 1020.7 |
| 20260507134028 | 65 | 360 | 6.1 | 12.2 | 0.00 | 0.00 | 0.00 | 51 | 1021.1 |
| 20260507133015 | 66 | 322 | 8.7 | 13.0 | 0.00 | 0.00 | 0.00 | 52 | 1021.0 |
| 20260507132017 | 67 | 331 | 8.7 | 11.3 | 0.00 | 0.00 | 0.00 | 52 | 1020.7 |
| 20260507131044 | 67 | 323 | 3.5 | 7.8 | 0.00 | 0.00 | 0.00 | 54 | 1020.6 |
| 20260507130031 | 68 | 270 | 4.3 | 7.0 | 0.00 | 0.00 | 0.00 | 53 | 1020.4 |
| 20260507125052 | 68 | 330 | 4.3 | 8.7 | 0.00 | 0.00 | 0.00 | 53 | 1020.4 |
| 20260507124017 | 69 | 344 | 5.2 | 8.7 | 0.00 | 0.00 | 0.00 | 50 | 1020.7 |
| 20260507123027 | 70 | 303 | 2.6 | 8.7 | 0.00 | 0.00 | 0.00 | 52 | 1020.6 |
| 20260507122016 | 69 | 331 | 7.0 | 10.4 | 0.00 | 0.00 | 0.00 | 51 | 1020.7 |
| 20260507121022 | 67 | 344 | 7.0 | 11.3 | 0.00 | 0.00 | 0.00 | 53 | 1021.0 |
| 20260507120032 | 68 | 335 | 6.1 | 12.2 | 0.00 | 0.00 | 0.00 | 52 | 1021.1 |
| 20260507115027 | 68 | 325 | 8.7 | 12.2 | 0.00 | 0.00 | 0.00 | 54 | 1021.1 |
| 20260507114017 | 66 | 326 | 7.0 | 12.2 | 0.00 | 0.00 | 0.00 | 56 | 1021.3 |
| 20260507113026 | 66 | 324 | 7.8 | 12.2 | 0.00 | 0.00 | 0.00 | 55 | 1021.2 |
| 20260507112016 | 67 | 331 | 8.7 | 10.4 | 0.00 | 0.00 | 0.00 | 55 | 1021.3 |
| 20260507111024 | 66 | 306 | 2.6 | 7.8 | 0.00 | 0.00 | 0.00 | 57 | 1021.0 |
| 20260507110032 | 66 | 325 | 6.1 | 10.4 | 0.00 | 0.00 | 0.00 | 56 | 1021.1 |
| 20260507105019 | 66 | 339 | 2.6 | 5.2 | 0.00 | 0.00 | 0.00 | 54 | 1021.0 |
| 20260507104019 | 67 | 350 | 3.5 | 7.8 | 0.00 | 0.00 | 0.00 | 54 | 1021.0 |
| 20260507103027 | 67 | 340 | 2.6 | 7.8 | 0.00 | 0.00 | 0.00 | 50 | 1021.2 |
| 20260507102016 | 67 | 327 | 3.5 | 8.7 | 0.00 | 0.00 | 0.00 | 53 | 1021.4 |
| 20260507101025 | 68 | 342 | 2.6 | 7.0 | 0.00 | 0.00 | 0.00 | 53 | 1021.2 |
| 20260507100032 | 67 | 309 | 2.6 | 9.6 | 0.00 | 0.00 | 0.00 | 51 | 1021.3 |
| 20260507095025 | 67 | 321 | 5.2 | 9.6 | 0.00 | 0.00 | 0.00 | 52 | 1021.2 |
| 20260507094013 | 67 | 313 | 2.6 | 7.8 | 0.00 | 0.00 | 0.00 | 51 | 1021.2 |
| 20260507093040 | 66 | 323 | 3.5 | 9.6 | 0.00 | 0.00 | 0.00 | 53 | 1021.2 |
| 20260507092027 | 66 | 312 | 4.3 | 7.8 | 0.00 | 0.00 | 0.00 | 52 | 1021.3 |
| 20260507091033 | 65 | 325 | 5.2 | 7.8 | 0.00 | 0.00 | 0.00 | 52 | 1021.0 |
| 20260507090033 | 66 | 346 | 3.5 | 7.8 | 0.00 | 0.00 | 0.00 | 52 | 1021.1 |
| 20260507085027 | 66 | 343 | 4.3 | 8.7 | 0.00 | 0.00 | 0.00 | 51 | 1021.0 |
| 20260507084013 | 67 | 315 | 4.3 | 7.8 | 0.00 | 0.00 | 0.00 | 50 | 1021.1 |
| 20260507083020 | 65 | 330 | 4.3 | 8.7 | 0.00 | 0.00 | 0.00 | 51 | 1021.1 |
| 20260507082038 | 66 | 295 | 3.5 | 9.6 | 0.00 | 0.00 | 0.00 | 49 | 1021.1 |
| 20260507081026 | 67 | 263 | 5.2 | 7.0 | 0.00 | 0.00 | 0.00 | 44 | 1021.1 |
| 20260507080032 | 67 | 346 | 4.3 | 7.8 | 0.00 | 0.00 | 0.00 | 44 | 1021.0 |
| 20260507075017 | 66 | 318 | 2.6 | 7.0 | 0.00 | 0.00 | 0.00 | 43 | 1020.7 |
| 20260507074026 | 67 | 331 | 1.7 | 3.5 | 0.00 | 0.00 | 0.00 | 43 | 1020.5 |
| 20260507073015 | 65 | 331 | 2.6 | 3.5 | 0.00 | 0.00 | 0.00 | 46 | 1020.9 |
| 20260507072019 | 65 | 17 | 0.9 | 2.6 | 0.00 | 0.00 | 0.00 | 45 | 1020.9 |
| 20260507071028 | 64 | 17 | 0.0 | 1.7 | 0.00 | 0.00 | 0.00 | 49 | 1020.8 |
| 20260507070032 | 63 | 17 | 0.0 | 0.0 | 0.00 | 0.00 | 0.00 | 62 | 1020.7 |
| 20260507065018 | 60 | 17 | 0.0 | 0.0 | 0.00 | 0.00 | 0.00 | 63 | 1021.0 |
| 20260507064026 | 58 | 17 | 0.0 | 0.0 | 0.00 | 0.00 | 0.00 | 67 | 1021.0 |
| 20260507063015 | 57 | 17 | 0.0 | 0.0 | 0.00 | 0.00 | 0.00 | 62 | 1021.0 |
| 20260507062019 | 56 | 17 | 0.0 | 0.0 | 0.00 | 0.00 | 0.00 | 64 | 1021.0 |
| 20260507061022 | 55 | 17 | 0.0 | 0.0 | 0.00 | 0.00 | 0.00 | 64 | 1021.0 |
| 20260507060031 | 54 | 17 | 0.0 | 0.0 | 0.00 | 0.00 | 0.00 | 68 | 1021.0 |
| 20260507055028 | 53 | 17 | 0.0 | 0.0 | 0.00 | 0.00 | 0.00 | 70 | 1021.0 |
| 20260507054016 | 52 | 17 | 0.0 | 0.0 | 0.00 | 0.00 | 0.00 | 69 | 1021.0 |
| 20260507053026 | 51 | 17 | 0.0 | 0.0 | 0.00 | 0.00 | 0.00 | 66 | 1021.0 |
| 20260507052012 | 50 | 17 | 0.0 | 0.0 | 0.00 | 0.00 | 0.00 | 72 | 1020.7 |
| 20260507051042 | 48 | 17 | 0.0 | 0.0 | 0.00 | 0.00 | 0.00 | 75 | 1020.6 |
| 20260507050032 | 49 | 17 | 0.0 | 0.0 | 0.00 | 0.00 | 0.00 | 73 | 1020.5 |
| 20260507045013 | 47 | 17 | 0.0 | 0.0 | 0.00 | 0.00 | 0.00 | 77 | 1020.3 |